This is the latest recevied weather packets stored in our database for station/object N2QKV-13. If no packets are shown the sender has not sent any weather packets the latest 10 day(s).
| Time | Temp. | Humidity | Pressure | Rain* | Wind** | Luminosity | Snow |
|---|---|---|---|---|---|---|---|
| 1777468804 | 13.33° C | 67% | 1015.7 hPa | 0 mm | - | - | - |
| 1777468503 | 13.33° C | 68% | 1015.7 hPa | 0 mm | - | - | - |
| 1777468204 | 13.33° C | 68% | 1015.7 hPa | 0 mm | - | - | - |
| 1777467903 | 12.78° C | 67% | 1015.6 hPa | 0 mm | - | - | - |
| 1777467604 | 13.33° C | 68% | 1015.5 hPa | 0 mm | - | - | - |
| 1777467304 | 12.78° C | 68% | 1015.8 hPa | 0 mm | - | - | - |
| 1777467003 | 12.78° C | 69% | 1015.6 hPa | 0 mm | - | - | - |
| 1777466704 | 12.78° C | 70% | 1015.5 hPa | 0 mm | - | - | - |
| 1777466404 | 12.22° C | 70% | 1015.8 hPa | 0 mm | - | - | - |
| 1777466104 | 12.22° C | 70% | 1015.8 hPa | 0 mm | - | - | - |
| 1777465804 | 12.22° C | 71% | 1015.7 hPa | 0 mm | - | - | - |
| 1777465503 | 12.22° C | 71% | 1015.8 hPa | 0 mm | - | - | - |
| 1777465204 | 12.22° C | 71% | 1016 hPa | 0 mm | - | - | - |
| 1777464903 | 12.22° C | 71% | 1016 hPa | 0 mm | - | - | - |
| 1777464604 | 12.22° C | 70% | 1016 hPa | 0 mm | - | - | - |
| 1777464304 | 12.22° C | 71% | 1016.2 hPa | 0 mm | - | - | - |
| 1777464004 | 12.22° C | 70% | 1016.3 hPa | 0 mm | - | - | - |
| 1777463704 | 12.22° C | 70% | 1016.2 hPa | 0 mm | - | - | - |
| 1777463404 | 12.22° C | 71% | 1016.2 hPa | 0 mm | - | - | - |
| 1777463104 | 12.22° C | 72% | 1016.1 hPa | 0 mm | - | - | - |
| 1777462804 | 11.67° C | 73% | 1016.2 hPa | 0 mm | - | - | - |
| 1777462503 | 11.67° C | 75% | 1016.3 hPa | 0 mm | - | - | - |
| 1777462203 | 11.11° C | 78% | 1016.2 hPa | 0 mm | - | - | - |
| 1777461903 | 11.11° C | 79% | 1016.2 hPa | 0 mm | - | - | - |
| 1777461603 | 10.56° C | 79% | 1016.1 hPa | 0 mm | - | - | - |
* Rain latest hour (hover to see other rain measurements)
** Current wind speed in m/s (hover to see current wind gust speed)